GW5112 Weather Reports


time (UTC)temp
F
wind
direction
speed
knots
gust
knots
rain 1hr
in
rain 24hr
in
rain mn
in
humidity
%
barometer
mb
20260502170318 54 272 1.7 3.5 0.00 0.00 0.00 51 1018.1
20260502164306 52 37 1.7 3.5 0.00 0.00 0.00 52 1018.4
20260502163801 55 45 4.3 6.1 0.00 0.00 0.00 50 1018.4
20260502163258 54 251 0.0 2.6 0.00 0.00 0.00 53 1018.6
20260502162755 55 34 0.9 5.2 0.00 0.00 0.00 50 1018.5
20260502162252 53 234 0.9 3.5 0.00 0.00 0.00 51 1018.5
20260502161749 55 52 3.5 5.2 0.00 0.00 0.00 51 1018.5
20260502161240 53 246 2.6 5.2 0.00 0.00 0.00 53 1018.7
20260502160738 53 312 0.9 1.7 0.00 0.00 0.00 50 1018.5
20260502160237 53 280 1.7 2.6 0.00 0.00 0.00 48 1018.7
20260502152200 53 272 4.3 7.8 0.00 0.00 0.00 50 1018.8
20260502151658 54 216 1.7 3.5 0.00 0.00 0.00 50 1018.8
20260502151155 56 47 3.5 5.2 0.00 0.00 0.00 50 1018.8
20260502150652 55 216 1.7 2.6 0.00 0.00 0.00 48 1018.7
20260502150148 54 13 0.0 1.7 0.00 0.00 0.00 51 1018.6
20260502140112 51 24 0.9 2.6 0.00 0.00 0.00 59 1018.9
20260502130537 40 214 0.0 0.9 0.00 0.00 0.00 99 1018.8
20260502123520 38 214 0.0 0.0 0.00 0.00 0.00 99 1018.9
20260502123017 37 214 0.0 0.0 0.00 0.00 0.00 99 1019.0
20260502122513 37 214 0.0 0.9 0.00 0.00 0.00 99 1019.1
20260502122011 36 214 0.0 1.7 0.00 0.00 0.00 99 1019.0
20260502121508 36 185 0.9 1.7 0.00 0.00 0.00 99 1018.9
20260502121005 36 182 0.9 1.7 0.00 0.00 0.00 99 1018.9
20260502120501 35 147 0.0 0.9 0.00 0.00 0.00 99 1019.0
20260502115456 35 96 0.0 0.0 0.00 0.00 0.00 99 1018.9
20260502114952 35 96 0.0 0.9 0.00 0.00 0.00 99 1019.0
20260502114449 35 96 0.0 0.0 0.00 0.00 0.00 99 1019.0
20260502113946 34 96 0.0 0.0 0.00 0.00 0.00 99 1018.9
20260502113443 34 103 0.0 0.0 0.00 0.00 0.00 99 1018.9
20260502112942 33 110 0.9 0.9 0.00 0.00 0.00 99 1018.8
20260502112439 33 140 0.0 0.0 0.00 0.00 0.00 99 1019.0
20260502111936 33 140 0.0 0.0 0.00 0.00 0.00 99 1019.0
20260502111433 32 140 0.0 0.0 0.00 0.00 0.00 99 1018.9
20260502110931 32 140 0.0 0.0 0.00 0.00 0.00 99 1018.7
20260502110429 32 140 0.0 0.0 0.00 0.00 0.00 99 1018.7
20260502105925 32 140 0.0 0.0 0.00 0.00 0.00 99 1018.7
20260502105422 32 66 0.0 0.0 0.00 0.00 0.00 99 1018.5
20260502104921 32 66 0.0 0.0 0.00 0.00 0.00 99 1018.8
20260502104418 32 66 0.0 0.0 0.00 0.00 0.00 99 1018.6
20260502103915 32 66 0.0 0.0 0.00 0.00 0.00 99 1018.7
20260502103413 32 66 0.0 0.0 0.00 0.00 0.00 99 1018.8
20260502102910 32 66 0.0 0.0 0.00 0.00 0.00 99 1018.9
20260502102406 32 66 0.0 0.0 0.00 0.00 0.00 99 1019.0
20260502101904 32 66 0.0 0.0 0.00 0.00 0.00 99 1019.1
20260502101402 32 66 0.0 0.0 0.00 0.00 0.00 99 1018.9
20260502100900 32 66 0.0 0.0 0.00 0.00 0.00 99 1018.8
20260502100359 32 66 0.0 0.0 0.00 0.00 0.00 99 1018.8
20260502091332 31 66 0.0 0.0 0.00 0.00 0.00 99 1018.7
20260502090830 31 66 0.0 0.0 0.00 0.00 0.00 99 1018.8
20260502090327 32 66 0.0 0.0 0.00 0.00 0.00 99 1019.0
20260502071222 32 66 0.0 0.0 0.00 0.00 0.00 99 1018.4
20260502070720 33 66 0.0 0.0 0.00 0.00 0.00 99 1018.5
20260502070217 32 66 0.0 0.0 0.00 0.00 0.00 99 1018.4
20260502065716 32 66 0.0 0.0 0.00 0.00 0.00 99 1018.5
20260502065213 33 66 0.0 0.0 0.00 0.00 0.00 99 1018.7
20260502064712 33 66 0.0 0.0 0.00 0.00 0.00 99 1018.7
20260502064209 33 66 0.0 0.9 0.00 0.00 0.00 99 1018.7
20260502063706 33 66 0.0 0.0 0.00 0.00 0.00 99 1018.9
20260502063204 33 66 0.0 0.0 0.00 0.00 0.00 99 1018.9
20260502062701 33 66 0.0 0.0 0.00 0.00 0.00 99 1019.0
20260502062158 33 66 0.0 0.0 0.00 0.00 0.00 99 1019.1
20260502061656 33 66 0.0 0.0 0.00 0.00 0.00 99 1019.1
20260502061154 33 66 0.0 0.0 0.00 0.00 0.00 99 1019.1
20260502060648 33 66 0.0 0.0 0.00 0.00 0.00 99 1019.2
20260502060145 33 67 0.0 0.0 0.00 0.00 0.00 99 1019.3
20260502055642 34 67 0.0 0.0 0.00 0.00 0.00 99 1019.2
20260502055140 34 67 0.0 0.0 0.00 0.00 0.00 99 1019.1
20260502054639 34 67 0.0 0.0 0.00 0.00 0.00 99 1019.1
20260502054136 34 67 0.0 0.0 0.00 0.00 0.00 99 1019.2
20260502053633 34 67 0.0 0.0 0.00 0.00 0.00 99 1019.2
20260502053130 34 67 0.0 0.0 0.00 0.00 0.00 99 1019.2
20260502052629 34 67 0.0 0.0 0.00 0.00 0.00 99 1019.1
20260502052127 34 67 0.0 0.0 0.00 0.00 0.00 99 1019.0
20260502051625 34 67 0.0 0.0 0.00 0.00 0.00 99 1019.1
20260502051123 34 67 0.0 0.0 0.00 0.00 0.00 99 1019.2
20260502050619 34 67 0.0 0.0 0.00 0.00 0.00 99 1019.1
20260502050115 35 67 0.0 0.0 0.00 0.00 0.00 99 1019.3
20260502045612 35 67 0.0 0.0 0.00 0.00 0.00 99 1019.3
20260502045109 35 67 0.0 0.0 0.00 0.00 0.00 99 1019.1
20260502044606 35 67 0.0 0.0 0.00 0.00 0.00 99 1019.2
20260502044103 35 67 0.0 0.0 0.00 0.00 0.00 99 1019.4
20260502043601 35 67 0.0 0.0 0.00 0.00 0.00 99 1019.2
20260502043056 35 67 0.0 0.9 0.00 0.00 0.00 99 1019.1
20260502042551 35 67 0.0 0.0 0.00 0.00 0.00 99 1019.3
20260502042049 35 67 0.0 0.0 0.00 0.00 0.00 99 1019.1
20260502041547 36 67 0.0 0.0 0.00 0.00 0.00 99 1019.2
20260502041043 35 67 0.0 0.0 0.00 0.00 0.00 98 1019.3
20260502040540 35 67 0.0 0.0 0.00 0.00 0.00 98 1019.2
20260502040037 36 67 0.0 0.0 0.00 0.02 0.02 98 1019.2
20260502035533 36 67 0.0 0.0 0.00 0.02 0.02 98 1019.0
20260502035031 36 67 0.0 0.0 0.00 0.02 0.02 98 1019.0
20260502034528 36 67 0.0 0.0 0.00 0.02 0.02 98 1019.1
20260502034027 36 67 0.0 0.0 0.00 0.02 0.02 97 1019.1
20260502033525 36 67 0.0 0.0 0.00 0.02 0.02 97 1019.0
20260502033022 36 67 0.0 0.0 0.00 0.02 0.02 97 1019.1
20260502032517 37 67 0.0 0.0 0.00 0.02 0.02 97 1018.9
20260502032014 37 67 0.0 0.0 0.00 0.02 0.02 97 1019.1
20260502031512 37 67 0.0 0.0 0.00 0.02 0.02 97 1019.1
20260502031010 37 66 0.0 0.0 0.00 0.02 0.02 97 1019.1
20260502030508 38 58 0.0 0.9 0.00 0.02 0.02 96 1019.3
20260502030006 38 57 0.0 0.0 0.00 0.02 0.02 96 1019.3
20260502025503 38 57 0.0 0.0 0.00 0.02 0.02 96 1019.2
20260502025001 38 57 0.0 0.0 0.00 0.02 0.02 96 1019.2
20260502024458 38 57 0.0 0.0 0.00 0.02 0.02 95 1019.0
20260502023956 38 57 0.0 0.0 0.00 0.02 0.02 95 1018.9
20260502023453 39 57 0.0 0.0 0.00 0.02 0.02 95 1018.9
20260502022950 39 57 0.0 0.0 0.00 0.02 0.02 94 1018.8
20260502022447 39 57 0.0 0.0 0.00 0.02 0.02 94 1018.6
20260502021944 39 57 0.0 0.0 0.00 0.02 0.02 93 1018.5
20260502021442 40 57 0.0 0.0 0.00 0.02 0.02 92 1018.4
20260502020938 40 57 0.0 0.9 0.00 0.02 0.02 92 1018.5
20260502020437 40 57 0.0 0.0 0.00 0.02 0.02 91 1018.4
20260502015933 40 56 0.9 0.9 0.00 0.02 0.02 91 1018.3
20260502015431 41 47 0.0 0.0 0.00 0.02 0.02 90 1018.2
20260502014927 42 47 0.0 0.0 0.00 0.02 0.02 88 1018.0
20260502014424 42 47 0.0 0.0 0.00 0.02 0.02 85 1018.1
20260502013921 44 36 0.0 0.0 0.00 0.02 0.02 84 1018.0
20260502013416 44 30 0.0 0.0 0.00 0.02 0.02 78 1017.9
20260502012913 45 26 0.0 0.9 0.00 0.02 0.02 75 1018.0
20260502012411 46 26 0.0 0.0 0.00 0.02 0.02 74 1017.8
20260502011908 46 26 0.0 0.0 0.00 0.02 0.02 73 1017.7
20260502011404 47 19 0.0 1.7 0.00 0.02 0.02 71 1017.6
20260502010902 47 264 0.0 0.9 0.00 0.02 0.02 71 1017.6
20260502010358 47 18 0.0 0.0 0.00 0.02 0.02 71 1017.5
20260502005855 47 24 0.0 0.9 0.00 0.02 0.02 69 1017.4
20260502005352 48 47 0.0 2.6 0.00 0.02 0.02 69 1017.2
20260502004850 48 36 0.9 1.7 0.00 0.02 0.02 69 1017.1
20260502004345 48 50 0.9 1.7 0.00 0.02 0.02 70 1017.1
20260502003843 49 50 0.9 2.6 0.00 0.02 0.02 69 1016.9
20260502003340 49 28 3.5 5.2 0.00 0.02 0.02 68 1017.0
20260502002837 50 338 1.7 2.6 0.00 0.02 0.02 68 1017.2
20260502002334 49 79 1.7 7.0 0.00 0.02 0.02 68 1017.1
20260502001831 50 349 1.7 2.6 0.00 0.02 0.02 67 1016.9
20260502001329 51 315 0.9 3.5 0.00 0.02 0.02 66 1016.7
20260502000826 51 51 2.6 7.0 0.00 0.02 0.02 65 1016.6
20260502000325 52 31 1.7 9.6 0.00 0.02 0.02 64 1016.5
20260501235820 52 40 1.7 2.6 0.00 0.02 0.02 64 1016.4
20260501235316 52 94 2.6 6.1 0.00 0.02 0.02 67 1016.0
20260501234811 52 345 2.6 3.5 0.00 0.02 0.02 66 1015.9
20260501234309 53 347 1.7 5.2 0.00 0.02 0.02 67 1015.8
20260501233807 53 36 3.5 5.2 0.00 0.02 0.02 65 1015.6
20260501233304 53 254 2.6 5.2 0.00 0.02 0.02 65 1015.4
20260501232800 53 106 0.0 2.6 0.00 0.02 0.02 68 1015.4
20260501232257 54 70 0.9 6.1 0.00 0.02 0.02 66 1015.4
20260501231754 54 355 0.9 2.6 0.00 0.02 0.02 67 1015.3
20260501231253 55 305 1.7 3.5 0.00 0.02 0.02 68 1015.5
20260501230750 54 323 2.6 3.5 0.00 0.02 0.02 68 1015.4
20260501230249 54 202 1.7 3.5 0.00 0.02 0.02 69 1015.4
20260501225746 54 245 1.7 3.5 0.00 0.02 0.02 69 1015.1
20260501225244 54 255 0.0 3.5 0.00 0.02 0.02 69 1015.3
20260501224739 54 67 0.0 2.6 0.00 0.02 0.02 71 1015.2
20260501224237 55 247 0.0 1.7 0.00 0.02 0.02 69 1015.3
20260501223733 55 271 0.0 7.0 0.00 0.02 0.02 69 1015.3
20260501223230 55 276 0.9 2.6 0.00 0.02 0.02 70 1015.2
20260501222726 55 312 2.6 3.5 0.00 0.02 0.02 71 1015.1
20260501222223 55 321 0.0 1.7 0.00 0.02 0.02 72 1015.2
20260501221720 56 245 2.6 5.2 0.00 0.02 0.02 69 1014.9
20260501221217 56 301 0.9 3.5 0.00 0.02 0.02 69 1014.8
20260501220715 56 236 0.0 2.6 0.00 0.02 0.02 70 1015.0
20260501220212 55 54 0.9 2.6 0.00 0.02 0.02 70 1014.9
20260501215709 55 260 0.0 3.5 0.00 0.02 0.02 71 1015.0
20260501215204 54 241 0.0 0.9 0.00 0.02 0.02 72 1015.1
20260501214659 54 236 0.9 1.7 0.00 0.02 0.02 72 1015.0
20260501214155 54 297 0.9 1.7 0.00 0.02 0.02 72 1015.1
20260501213652 54 290 0.0 1.7 0.00 0.02 0.02 72 1014.9
20260501213147 54 337 0.0 0.9 0.00 0.02 0.02 74 1015.1
20260501212644 53 301 0.0 1.7 0.00 0.02 0.02 73 1014.8
20260501212141 54 327 0.0 1.7 0.00 0.02 0.02 72 1014.8
20260501211638 53 20 2.6 3.5 0.00 0.02 0.02 72 1014.7
20260501211135 53 42 2.6 3.5 0.00 0.02 0.02 73 1014.7
20260501210632 54 302 1.7 1.7 0.00 0.02 0.02 71 1014.6
20260501210128 54 248 2.6 6.1 0.00 0.02 0.02 69 1014.9
20260501205625 54 30 0.9 3.5 0.00 0.02 0.02 70 1014.9
20260501205123 55 67 2.6 3.5 0.00 0.02 0.02 72 1014.7
20260501204619 54 260 0.9 2.6 0.00 0.02 0.02 71 1014.7
20260501204115 54 342 1.7 2.6 0.00 0.02 0.02 70 1014.7
20260501203612 54 263 1.7 6.1 0.00 0.02 0.02 69 1014.8
20260501203109 54 257 5.2 7.8 0.00 0.02 0.02 71 1014.8
20260501202606 54 299 3.5 6.1 0.00 0.02 0.02 72 1015.0
20260501202103 55 325 2.6 6.1 0.00 0.02 0.02 72 1014.8
20260501201600 55 322 1.7 7.8 0.00 0.02 0.02 71 1014.9
20260501201056 56 322 2.6 5.2 0.00 0.02 0.02 73 1014.6
20260501200553 56 252 1.7 7.0 0.00 0.02 0.02 73 1014.7
20260501200051 56 88 0.9 5.2 0.00 0.02 0.02 73 1014.7
20260501195548 56 325 4.3 11.3 0.00 0.02 0.02 71 1014.5
20260501195043 57 291 3.5 6.1 0.00 0.02 0.02 73 1014.4
20260501194539 58 295 0.9 2.6 0.00 0.02 0.02 74 1014.5
20260501194035 58 244 0.0 3.5 0.00 0.02 0.02 75 1014.3
20260501193533 57 230 0.9 1.7 0.00 0.02 0.02 78 1014.3
20260501193031 56 272 0.9 1.7 0.00 0.02 0.02 79 1014.4
20260501192527 56 26 0.9 2.6 0.00 0.02 0.02 80 1014.4
20260501192026 56 33 2.6 2.6 0.05 0.02 0.02 80 1014.5
20260501191522 56 359 0.9 2.6 0.05 0.02 0.02 84 1014.1
20260501191020 55 350 0.0 0.9 0.00 0.01 0.01 80 1014.4
20260501190515 55 271 0.0 0.9 0.07 0.01 0.01 79 1014.5
20260501190011 55 20 0.0 3.5 0.07 0.01 0.01 77 1014.4
20260501185507 56 235 1.7 7.8 0.00 0.00 0.00 72 1014.5
20260501185003 57 29 0.9 7.0 0.00 0.00 0.00 68 1014.1
20260501184459 59 306 1.7 2.6 0.00 0.00 0.00 63 1013.8
20260501183954 60 346 0.0 2.6 0.00 0.00 0.00 63 1013.6
20260501183452 60 261 0.9 2.6 0.00 0.00 0.00 58 1013.4
20260501182948 61 241 0.9 5.2 0.00 0.00 0.00 55 1013.6
20260501182445 61 263 2.6 3.5 0.00 0.00 0.00 53 1013.4
20260501181941 62 349 0.9 6.1 0.00 0.00 0.00 50 1013.4
20260501181439 63 42 0.9 3.5 0.00 0.00 0.00 52 1013.3
20260501180936 64 259 0.9 5.2 0.00 0.00 0.00 49 1013.3
20260501180433 62 219 4.3 7.0 0.00 0.00 0.00 50 1013.2
20260501175929 62 288 5.2 7.0 0.00 0.00 0.00 49 1013.3
20260501175426 62 227 2.6 8.7 0.00 0.00 0.00 51 1013.4
20260501174923 63 243 2.6 7.8 0.00 0.00 0.00 49 1013.4
20260501174421 63 261 1.7 2.6 0.00 0.00 0.00 47 1013.4
20260501173918 62 285 2.6 3.5 0.00 0.00 0.00 47 1013.6
20260501173416 64 232 5.2 8.7 0.00 0.00 0.00 46 1013.3
20260501172911 62 269 3.5 7.0 0.00 0.00 0.00 48 1013.4
20260501172406 62 186 1.7 5.2 0.00 0.00 0.00 50 1013.7
20260501171902 64 243 2.6 3.5 0.00 0.00 0.00 46 1013.6